THOR AGENA B DEB

Satellite information

Favourite Embed

Satellite Type and Status

DEBRISIN ORBIT

Key statistics

Satellite THOR AGENA B DEB at a glance.

Uptime

21771

Days in orbit

Revolutions

≈ 12.3

Per day

Orbit

HEO

HEO

Inclination

79.9

Latest

Satellite identification and parameters

Extended collection of information and parameters for THOR AGENA B DEB.

Object identification

Identified? True

Debris? True

Object name: THOR AGENA B DEB

International designator: 1965-098H

Object number (NORAD): 2092

Object ID (CCSDS): 2092

Country: UNITED STATES OF AMERICA (US)

Current information (Y/N): Y

RCS size: SMALL

Orbital parameters

Period: 116.668 minutes

Inclination: 79.8645 deg

SMA: 7909.115 km

Apoapsis: 2559.49 km

Periapsis: 502.471 km

RAAN: 295.0735 deg

Eccentricy: 0.130041

Argument of periapsis: 93.8161 deg

Mean anomaly: 281.2164 deg

Mean motion: 12.34272036 rev/day

Mean motion (dot): 0.00000967 rev/day2

B* drag term: 0.00030908 1/REarth

Two-line elements (TLE)

Creation date: July 8, 2025, 2:27 a.m.

Reference frame: TEME

Reference center: EARTH

Epoch: July 7, 2025, 5:49 p.m. UTC

TLE line 0: 0 THOR AGENA B DEB

TLE line 1: 1 02092U 65098H 25188.74271954 .00000967 00000-0 30908-3 0 9999

TLE line 2: 2 02092 79.8645 295.0735 1300410 93.8161 281.2164 12.34272036637912

Live tracking on map

Real-time ground track for satellite THOR AGENA B DEB.

In-orbit conjunctions

A list of the most updated potential collisions computed for object THOR AGENA B DEB.

Target Orbit TCA Probability of collision Miss distance Type
COSMOS 2253 LEO 2025-04-30 10:31:04 0.000160793 221.0 (m) PAYLOAD
COSMOS 883 LEO 2024-09-18 03:01:37 0.002308183 118.0 (m) PAYLOAD

Associated space launch

Canadian small ionospheric observatory instrumented with a sweep-frequency ionospheric sounder, a VLF receiver, an energetic particle experiment, a cosmic noise experiment, and an electrostatic probe.

THOR AGENA B DEB was lifted into orbit during the mission ‘Thor SLV-2 Agena B | Alouette 2’, on board a Thor SLV-2 Agena B space rocket.

The launch took place on Nov. 29, 1965, 4:48 a.m. from Space Launch Complex 2E.

For more information about the launch, click the button.

Launch to space Thor SLV-2 Agena B | Alouette 2
Thor SLV-2 Agena B | Alouette 2

Agency: N/A

Status: Launch Successful

Launch date: Nov. 29, 1965, 4:48 a.m. UTC

Rocket: Thor SLV-2 Agena B

Launch pad: Space Launch Complex 2E

Location: Vandenberg SFB, CA, USA

...

Latest news about this satellite

There are no fresh news available about this satellite. Check back as we update our databases every day.


Newsletter sign-up

Weekly statistics, charts and insights to help you stay on top of the space industry.